Regional Weather Roundup
Issued by NWS

Home | Current Version | Previous Version | Text Only | Print | Product List | Glossary On
Versions: 1 2 3 4 5 6 7 8 9 10 11 12 13 14 15 16 17 18 19 20 21 22 23 24 25 26 27 28 29 30 31 32 33 34 35 36 37 38 39 40 41 42 43 44 45 46 47 48 49 50
000
ASUS43 KOAX 180402
RWRNE

WEATHER ROUNDUP FOR NEBRASKA
NATIONAL WEATHER SERVICE OMAHA NE
1100 PM CDT THU APR 17 2014

NOTES: SATELLITE DATA IS BEING USED TO AUGMENT CLOUD COVER ABOVE
       12000 FEET.
       "FAIR" INDICATES FEW OR NO CLOUDS BELOW 12,000 FEET WITH NO
       SIGNIFICANT WEATHER AND/OR OBSTRUCTIONS TO VISIBILITY.

  * THESE STATIONS DO NOT REPORT WEATHER SUCH AS RAIN...SNOW OR FOG.

NEZ001>004-019>022-054>056-180500-
NEBRASKA PANHANDLE

CITY           SKY/WX    TMP DP  RH WIND       PRES   REMARKS
SCOTTSBLUFF    CLEAR     46  37  71 SE16      29.97S
ALLIANCE       CLEAR     45  37  73 SE17      29.99F
CHADRON        PTCLDY    50  38  63 SE28G35   29.94F
KIMBALL        CLEAR     46  31  57 S12       29.99R
SIDNEY         PTCLDY    47  36  65 S16       30.03R
$$

NEZ057>060-069>072-079>082-180500-
SOUTHWEST NEBRASKA

CITY           SKY/WX    TMP DP  RH WIND       PRES   REMARKS
NORTH PLATTE   CLEAR     42  31  64 SE9       30.12S
IMPERIAL       CLEAR     47  37  68 S20G30    30.11R
LEXINGTON      CLEAR     44  32  63 SE12      30.17S
MCCOOK         CLEAR     46  34  62 S13       30.16S
OGALLALA       CLEAR     48  36  62 S21G26    30.07R
$$

NEZ005>010-023>029-035>040-094-180500-
NORTH CENTRAL NEBRASKA

CITY           SKY/WX    TMP DP  RH WIND       PRES   REMARKS
VALENTINE      CLEAR     42  26  53 SE13      30.10S
AINSWORTH      CLEAR     42  28  57 SE9       30.13R
BROKEN BOW     CLEAR     38  28  67 S5        30.15F WCI  34
O`NEILL        CLEAR     41  23  48 SE7       30.19S
ORD            CLEAR     41  27  57 SE6       30.17F
THEDFORD       CLEAR     45  33  62 SE10      30.12S
$$

NEZ041-046>049-061>064-073>077-083>087-180500-
SOUTH CENTRAL NEBRASKA

CITY           SKY/WX    TMP DP  RH WIND       PRES   REMARKS
GRAND ISLAND   CLEAR     43  28  55 SE7       30.22S
AURORA         CLEAR     41  28  58 SE8       30.22S
HASTINGS       PTCLDY    45  27  49 S8        30.21S
HEBRON         CLEAR     40  28  64 S6        30.24F
HOLDREGE       CLEAR     41  30  65 SE9       30.18F
KEARNEY *      CLEAR     39  28  65 SE10      30.19F WCI  32
YORK           CLEAR     41  27  56 SE7       30.24S
$$

NEZ011>018-030>034-042>045-180500-
NORTHEAST NEBRASKA

CITY           SKY/WX    TMP DP  RH WIND       PRES   REMARKS
NORFOLK        CLEAR     38  24  57 SE7       30.22S WCI  33
ALBION         CLEAR     37  24  59 CALM      30.21S
BLAIR          CLEAR     46  23  41 SE5       30.25F
COLUMBUS *     CLEAR     37  21  52 E3        30.24F
FREMONT        CLEAR     44  24  44 E3        30.26S
TEKAMAH        CLOUDY    37  22  54 N3        30.26S
$$

NEZ050>053-065>068-078-088>093-180500-
SOUTHEAST NEBRASKA

CITY           SKY/WX    TMP DP  RH WIND       PRES   REMARKS
LINCOLN        CLEAR     48  26  42 CALM      30.27S
OMAHA EPPLEY   CLEAR     41  30  65 CALM      30.27S
BEATRICE       CLEAR     43  27  54 SE3       30.25F
FALLS CITY     CLEAR     43  28  55 CALM      30.26S
NEBRASKA CITY  CLEAR     45  26  48 S5        30.26F
$$

NEZ044-045-051>053-067-180500-
OMAHA AREA

CITY           SKY/WX    TMP DP  RH WIND       PRES   REMARKS
OMAHA EPPLEY   CLEAR     41  30  65 CALM      30.27S
BLAIR          CLEAR     46  23  41 SE5       30.25F
FREMONT        CLEAR     44  24  44 E3        30.26S
MILLARD        CLEAR     41  28  60 CALM      30.26S
OFFUTT AFB     CLEAR     36  27  71 CALM      30.26S
WAHOO          FAIR      37  23  56 SE5       30.25S WCI  34
$$



USA.gov is the U.S. government's official web portal to all federal, state and local government web resources and services.